[[{"header":{"parameterUnit":"m.s-1","parameterCategory":1,"la1":30.2991,"la2":30.254,"lo1":-89.0895,"lo2":-89.0444,"dy":0.0017,"dx":0.0017,"nx":28,"ny":28,"refTime":"2025-03-12T03:00:00:Z","depth":0,"parameterNumber":2,"parameterNumberName":"U-component_of_WINDS"},"data":[0,0,0,0,0,0,0,0,0,0,0,0,0,0,0,0,0,0,0,0,0,0,0,0,0,0,0,0,0,0,0,0,0,0,0,0,0,0,0,0,0,0,0,0,0,0,0,0,0,0,0,0,0,0,0,0,0,0,5.2599,5.2601,0,5.2783,5.2785,5.2787,5.2746,5.2742,5.2739,5.2736,5.2928,5.2936,5.2945,0,0,0,0,0,0,0,0,0,0,0,0,0,5.2212,5.2219,5.2598,5.2601,5.2603,5.2783,5.2785,5.2788,5.2747,5.2742,5.2738,5.2734,5.2925,5.2935,5.2945,0,0,0,0,0,0,0,0,0,0,0,0,0,5.2387,5.2222,5.2598,5.2604,5.2606,5.2782,5.2785,5.2789,5.2747,5.2742,5.2737,5.2732,5.2922,5.2934,5.2947,5.3129,0,0,5.2985,5.299,0,0,0,0,0,0,0,0,5.2377,5.2401,5.2601,5.2604,5.2607,5.2736,5.272,5.2903,5.2749,5.2694,5.2736,5.273,5.2869,5.2885,5.2932,5.3138,5.3146,5.2986,5.2994,5.2999,5.3003,0,0,0,0,0,0,0,5.2365,5.2393,5.2672,5.2604,5.2608,5.2598,5.2617,5.2754,5.2809,5.2698,5.2696,5.2718,5.2869,5.292,5.2936,5.3149,5.2986,5.2997,5.3005,5.301,5.3512,5.3517,0,0,0,0,0,0,5.235,5.2383,5.2666,5.2677,5.2476,5.2609,5.2631,5.27,5.2807,5.2818,5.2722,5.2715,5.2901,5.2921,5.2942,5.316,5.2999,5.3011,5.3018,5.3506,5.3513,5.3519,0,0,0,0,0,0,5.2342,5.2375,5.2658,5.2529,5.2565,5.2621,5.27,5.2706,5.2756,5.2825,5.2835,5.2763,5.2897,5.2925,5.3082,5.3167,5.3017,5.3028,5.3499,5.3508,5.3516,5.36,0,0,0,0,0,0,5.2331,5.2373,5.2442,5.2531,5.2572,5.2795,5.2705,5.2714,5.2778,5.277,5.2866,5.2877,5.2895,5.3064,5.3095,5.3181,5.3038,5.3492,5.3503,5.3514,5.359,5.361,5.3628,0,0,0,0,0,5.2317,5.246,5.2446,5.248,5.266,5.28,5.2823,5.284,5.2785,5.2855,5.2899,5.2874,5.3153,5.308,5.3115,5.3206,5.3487,5.35,5.3513,5.3581,5.3606,5.3627,0,0,0,0,0,0,5.2381,5.2471,5.2457,5.2633,5.2709,5.2792,5.2881,5.2866,5.296,5.295,5.2968,5.299,5.315,5.3194,5.3112,5.3387,5.3312,5.3333,5.3352,5.3376,5.3395,5.338,5.3048,0,0,0,0,0,5.2415,5.252,5.2594,5.2742,5.2781,5.2825,5.2886,5.2893,5.2972,5.3005,5.306,5.3139,5.3244,5.3313,5.3414,5.3597,5.3616,5.3677,5.3696,5.3711,5.3728,5.3825,5.3852,5.3562,5.3562,5.3562,0,0,5.2487,5.255,5.2615,5.2756,5.2816,5.2924,5.2852,5.2971,5.3051,5.3023,5.3174,5.3218,5.3307,5.3477,5.3555,5.3519,5.3812,5.3728,5.3739,5.3748,5.3841,5.3869,5.3893,5.3571,5.357,5.3568,0,0,5.2673,5.2732,5.286,5.2921,5.3011,5.3039,5.307,5.3156,5.3183,5.3335,5.3315,5.3412,5.3594,5.3657,5.3713,5.3922,5.3902,5.3955,5.4054,5.4148,5.4171,5.4191,5.4263,5.4289,5.3972,5.3972,5.3972,0,5.2751,5.2913,5.2928,5.3048,5.311,5.3088,5.3218,5.3276,5.3396,5.3439,5.3397,5.3622,5.3682,5.3864,5.3915,5.3962,5.3997,5.3943,5.4166,5.4187,5.4206,5.4275,5.4302,5.3978,5.3977,5.3977,5.3976,0,5.3004,5.3117,5.321,5.3323,5.3396,5.352,5.3554,5.3626,5.3626,5.3659,5.3812,5.3882,5.3995,5.404,5.4043,5.4223,5.4198,5.4162,5.4086,5.4239,5.4304,5.4331,5.3986,5.3984,5.3982,5.3981,0,0,5.3235,5.3354,5.3387,5.3437,5.3535,5.3623,5.3746,5.3855,5.3915,5.3999,5.4101,5.4255,5.422,5.4284,5.4294,5.4377,5.4535,5.433,5.4332,5.4363,5.4736,5.476,5.4791,5.4523,5.4528,5.4532,5.4727,0,5.3428,5.3643,5.3659,5.3853,5.3956,5.3937,5.4044,5.4115,5.4149,5.4242,5.428,5.4387,5.4335,5.4373,5.4455,5.4498,5.4609,5.4485,5.4617,5.4622,5.4592,5.4825,5.4852,5.5033,5.4753,5.4757,5.476,0,5.3681,5.3769,5.3973,5.4054,5.4098,5.4194,5.4294,5.4383,5.4464,5.4482,5.4553,5.455,5.4676,5.4597,5.477,5.4685,5.4741,5.477,5.4777,5.4788,5.4698,5.484,5.5091,5.5117,5.4801,5.4798,5.4795,0,5.3825,5.3996,5.4139,5.4183,5.4282,5.4349,5.4394,5.4469,5.4533,5.4621,5.4662,5.4765,5.4821,5.49,5.4925,5.4866,5.5097,5.502,5.5115,5.5114,5.5162,5.5158,5.5423,5.5203,5.5202,5.5202,5.5201,0,5.4037,5.4162,5.4204,5.4292,5.4431,5.4449,5.4587,5.4627,5.4694,5.4789,5.4781,5.487,5.4899,5.4994,5.5015,5.5153,5.5179,5.5197,5.5201,5.5196,5.5194,5.5231,5.5218,5.5209,5.5207,5.5206,5.5205,0,5.4221,5.4255,5.4409,5.4489,5.4513,5.4611,5.468,5.4764,5.4796,5.4917,5.4946,5.4996,5.5107,5.514,5.5275,5.5288,5.545,5.5444,5.5422,5.5421,5.5512,5.5502,5.5809,5.5848,5.5604,5.5607,5.5609,0,5.4353,5.4448,5.4538,5.46,5.4647,5.4748,5.4813,5.4835,5.4902,5.5,5.5072,5.5182,5.527,5.5448,5.5496,5.5598,5.5593,5.5693,5.5608,5.56,5.5591,5.5583,5.5592,5.5708,5.5711,5.5713,5.5715,0,5.4582,5.4594,5.4686,5.4785,5.4862,5.4941,5.5017,5.5069,5.5102,5.5178,5.529,5.5359,5.5494,5.5602,5.5705,5.5751,5.5738,5.5741,5.5768,5.5763,5.5745,5.5753,5.5463,5.5734,5.5732,5.573,5.5729,5.5728,5.4742,5.4825,5.49,5.5003,5.5063,5.5133,5.5216,5.5257,5.5351,5.5461,5.5469,5.559,5.5667,5.5804,5.5855,5.595,5.5921,5.596,5.597,5.5978,5.5984,5.5732,5.5969,5.5969,5.5968,5.5968,5.5968,0,5.4968,5.5016,5.5111,5.5216,5.5297,5.5277,5.536,5.5429,5.5535,5.5607,5.5693,5.5821,5.5926,5.5982,5.6086,5.6151,5.6147,5.6177,5.6171,5.6181,5.6006,5.5971,5.6178,5.6178,5.6178,5.6178,5.6178,5.6178,5.5095,5.5233,5.5253,5.542,5.5466,5.5583,5.5632,5.5697,5.5754,5.5897,5.5983,5.6019,5.6084,5.6192,5.6287,5.6301,5.6338,5.6371,5.6381,5.6216,5.6194,5.6173,5.614,5.638,5.638,5.6548,5.655,5.6551]},{"header":{"parameterUnit":"m.s-1","parameterCategory":1,"la1":30.2991,"la2":30.254,"lo1":-89.0895,"lo2":-89.0444,"dy":0.0017,"dx":0.0017,"nx":28,"ny":28,"refTime":"2025-03-12T03:00:00:Z","depth":0,"parameterNumber":3,"parameterNumberName":"V-component_of_WINDS"},"data":[0,0,0,0,0,0,0,0,0,0,0,0,0,0,0,0,0,0,0,0,0,0,0,0,0,0,0,0,0,0,0,0,0,0,0,0,0,0,0,0,0,0,0,0,0,0,0,0,0,0,0,0,0,0,0,0,0,0,2.5018,2.5019,0,2.5141,2.5143,2.5144,2.5152,2.5151,2.515,2.5148,2.5274,2.5279,2.5284,0,0,0,0,0,0,0,0,0,0,0,0,0,2.4788,2.4792,2.5017,2.5019,2.5021,2.5141,2.5143,2.5144,2.5153,2.5151,2.5149,2.5148,2.5273,2.5278,2.5284,0,0,0,0,0,0,0,0,0,0,0,0,0,2.4897,2.4793,2.5017,2.5039,2.5043,2.5141,2.5143,2.5145,2.5153,2.5151,2.5149,2.5147,2.5271,2.5278,2.5285,2.5369,0,0,2.5306,2.5309,0,0,0,0,0,0,0,0,2.4891,2.4905,2.5035,2.5038,2.5042,2.5129,2.5108,2.522,2.5154,2.5111,2.5148,2.5146,2.5228,2.5238,2.5266,2.5375,2.538,2.5307,2.5311,2.5314,2.5316,0,0,0,0,0,0,0,2.4883,2.49,2.5066,2.5036,2.5041,2.5043,2.5056,2.5129,2.5179,2.5115,2.5116,2.513,2.5229,2.5259,2.5269,2.5382,2.5306,2.5313,2.5317,2.532,2.5565,2.5567,0,0,0,0,0,0,2.4871,2.4894,2.5062,2.507,2.496,2.5048,2.5063,2.5103,2.5179,2.5188,2.5132,2.513,2.5248,2.5261,2.5273,2.5377,2.5314,2.532,2.5324,2.5563,2.5566,2.5568,0,0,0,0,0,0,2.4867,2.4886,2.5057,2.4982,2.5004,2.5055,2.5099,2.5107,2.5137,2.5192,2.5201,2.5153,2.5247,2.5264,2.5345,2.5381,2.5323,2.533,2.556,2.5564,2.5567,2.5584,0,0,0,0,0,0,2.486,2.4885,2.4918,2.4983,2.5008,2.5128,2.5102,2.5111,2.5149,2.5148,2.5214,2.5223,2.5247,2.5334,2.5352,2.539,2.5335,2.5557,2.5562,2.5566,2.558,2.5587,2.5593,0,0,0,0,0,2.4852,2.4917,2.4919,2.494,2.505,2.513,2.5144,2.517,2.5152,2.5185,2.522,2.5221,2.5374,2.5343,2.5362,2.5403,2.5555,2.556,2.5566,2.5577,2.5586,2.5593,0,0,0,0,0,0,2.4855,2.4926,2.4929,2.5018,2.5068,2.5131,2.5174,2.5179,2.5235,2.5231,2.5261,2.5276,2.5356,2.5388,2.5351,2.5488,2.5462,2.5472,2.5464,2.5473,2.548,2.5471,2.5341,0,0,0,0,0,2.4866,2.4925,2.4984,2.5057,2.5081,2.5123,2.5159,2.5174,2.5227,2.5248,2.5289,2.534,2.5399,2.5438,2.5496,2.5584,2.5598,2.5621,2.5628,2.5633,2.5641,2.569,2.57,2.5586,2.5586,2.5586,0,0,2.489,2.4936,2.4971,2.5059,2.5099,2.5158,2.5141,2.5205,2.5249,2.5258,2.5337,2.5369,2.5427,2.5512,2.5552,2.5541,2.5676,2.564,2.5644,2.5649,2.5696,2.5707,2.5717,2.5589,2.5589,2.5588,0,0,2.4964,2.5005,2.5069,2.511,2.5171,2.5198,2.5214,2.5276,2.5297,2.5377,2.5385,2.5437,2.5539,2.558,2.5615,2.5702,2.5705,2.572,2.5755,2.5802,2.5811,2.5819,2.585,2.5861,2.5728,2.5728,2.5728,0,2.4985,2.5076,2.5102,2.5166,2.5204,2.5214,2.5279,2.5317,2.5394,2.5419,2.5406,2.5533,2.5573,2.5668,2.5689,2.5716,2.5735,2.5713,2.5808,2.5816,2.5824,2.5854,2.5865,2.5729,2.5729,2.5729,2.5729,0,2.5099,2.5162,2.5207,2.5281,2.5323,2.5388,2.5423,2.5463,2.5474,2.5503,2.5583,2.5632,2.5699,2.5722,2.5735,2.5818,2.581,2.5801,2.5777,2.5836,2.5864,2.5876,2.5731,2.5731,2.573,2.573,0,0,2.518,2.5266,2.5283,2.5316,2.5383,2.5432,2.5496,2.5562,2.5595,2.5647,2.5702,2.5787,2.5779,2.5818,2.5835,2.5876,2.5941,2.5863,2.5864,2.5875,2.6036,2.6042,2.6055,2.5943,2.5945,2.5947,2.6031,0,2.5261,2.5376,2.5401,2.55,2.5558,2.5567,2.5623,2.567,2.5698,2.575,2.5781,2.5841,2.5826,2.585,2.5891,2.5925,2.5974,2.5919,2.5994,2.5996,2.5979,2.607,2.6076,2.6153,2.6042,2.6044,2.6046,0,2.5371,2.5426,2.5531,2.559,2.5615,2.5665,2.5726,2.5776,2.5829,2.5847,2.5889,2.5901,2.5967,2.5939,2.603,2.5992,2.6024,2.6045,2.6049,2.6057,2.6025,2.608,2.6178,2.619,2.6063,2.6062,2.6061,0,2.5419,2.5519,2.5594,2.5622,2.5693,2.5728,2.5759,2.581,2.5847,2.5901,2.5925,2.5986,2.6019,2.6065,2.6093,2.607,2.6182,2.6156,2.6198,2.6197,2.6221,2.622,2.6326,2.6242,2.6241,2.6241,2.6241,0,2.5507,2.5571,2.5617,2.5663,2.5734,2.5762,2.5831,2.5862,2.5907,2.5959,2.597,2.6019,2.6052,2.6105,2.6127,2.6199,2.6214,2.6229,2.6234,2.6228,2.6226,2.625,2.6245,2.6244,2.6244,2.6243,2.6242,0,2.5573,2.5606,2.5689,2.5749,2.5765,2.5815,2.5866,2.5911,2.5938,2.6004,2.6021,2.6064,2.6127,2.6158,2.6237,2.6251,2.6332,2.6334,2.6314,2.6317,2.6356,2.6352,2.6482,2.65,2.6403,2.6404,2.6405,0,2.5628,2.5677,2.5742,2.5777,2.5809,2.5866,2.5905,2.5933,2.5972,2.6036,2.6073,2.6136,2.6188,2.6288,2.6325,2.6385,2.6388,2.6429,2.6397,2.6389,2.6389,2.6385,2.639,2.6435,2.6436,2.6437,2.6438,0,2.572,2.5734,2.5789,2.5849,2.5894,2.5943,2.5992,2.602,2.6056,2.6099,2.6164,2.6204,2.6283,2.6346,2.6408,2.6439,2.6444,2.6447,2.646,2.6455,2.6441,2.6449,2.633,2.6444,2.6444,2.6443,2.6443,2.6443,2.5782,2.5826,2.5878,2.5938,2.5977,2.6022,2.6067,2.61,2.6154,2.6221,2.6234,2.6302,2.6352,2.6436,2.6469,2.6522,2.6513,2.6532,2.6537,2.6541,2.6543,2.6432,2.6534,2.6533,2.6533,2.6533,2.6533,0,2.5875,2.5908,2.5964,2.6031,2.6078,2.6079,2.6132,2.6171,2.6231,2.6278,2.6329,2.6402,2.6462,2.6504,2.6565,2.6599,2.6603,2.6614,2.6612,2.6619,2.6547,2.653,2.661,2.661,2.661,2.661,2.661,2.661,2.5929,2.6003,2.6022,2.6115,2.6149,2.6215,2.6245,2.6286,2.6324,2.6405,2.6455,2.6482,2.6527,2.6591,2.6646,2.6657,2.6678,2.669,2.67,2.6632,2.6624,2.6617,2.66,2.6694,2.6694,2.6768,2.6768,2.6769]}]]